Fairfield, CA

8:49 AM PDT on May 25, 2018 (GMT -0700)
Travis Air Force Base

Weather History for KSUU - September, 2013

Change the Weather History Date:

Monday, September 23, 2013

  Actual Average Record
Temperature  
Mean Temperature 68 °F -  
Max Temperature 84 °F 82 °F 98 °F (2002)
Min Temperature 52 °F 54 °F 45 °F (2017)
Cooling Degree Days 3    
Growing Degree Days 18 (Base 50)    
Moisture  
Dew Point 55 °F    
Average Humidity 66    
Maximum Humidity 99    
Minimum Humidity 35    
Precipitation  
Precipitation 0.00 in - - ()
Sea Level Pressure  
Sea Level Pressure 29.96 in    
Wind  
Wind Speed 6 mph (SW)    
Max Wind Speed 16 mph    
Max Gust Speed -    
Visibility 10 miles    
Events      
Averages and records for this station are not official NWS values.
T = Trace of Precipitation, MM = Missing Value Source: NWS Daily Summary

Daily Weather History Graph

Daily Weather History Graph

Search for Another Location

Airport or City:

Astronomy

Sep. 23, 2013 Rise Set
Actual Time 6:56 AM PDT 7:02 PM PDT
Civil Twilight 6:30 AM PDT 7:28 PM PDT
Nautical Twilight 5:59 AM PDT 7:59 PM PDT
Astronomical Twilight 5:28 AM PDT 8:30 PM PDT
Moon 9:42 PM PDT (9/23) 11:16 AM PDT (9/23)
Length of Visible Light 12h 58m
Length of Day
12h 05m
Waning Gibbous, 80% of the Moon is Illuminated
Sep 23
Waning Gibbous
Sep 26
Last Quarter
Oct 4
New
Oct 11
First Quarter
Oct 18
Full

Hourly Weather History & Observations

Time (PDT) Temp. Heat Index Dew Point Humidity Pressure Visibility Wind Dir Wind Speed Gust Speed Precip Events Conditions
12:58 AM 57.6 °F - 55.2 °F 92% 29.98 in 10.0 mi SW 5.8 mph - N/A   Clear
1:58 AM 57.2 °F - 54.3 °F 90% 29.99 in 10.0 mi SSW 5.8 mph - N/A   Clear
2:58 AM 56.7 °F - 54.1 °F 91% 29.98 in 10.0 mi SSW 5.8 mph - N/A   Clear
3:58 AM 55.2 °F - 53.6 °F 94% 29.98 in 10.0 mi South 4.6 mph - N/A   Clear
4:58 AM 52.9 °F - 52.7 °F 99% 29.98 in 10.0 mi North 1.2 mph - N/A   Clear
5:58 AM 52.0 °F - 51.6 °F 99% 29.99 in 10.0 mi West 3.5 mph - N/A   Clear
6:58 AM 52.0 °F - 51.8 °F 99% 30.00 in 10.0 mi WSW 5.8 mph - N/A   Clear
7:58 AM 56.5 °F - 55.4 °F 96% 30.01 in 10.0 mi SW 5.8 mph - N/A   Clear
8:58 AM 62.8 °F - 55.2 °F 76% 30.02 in 10.0 mi SSW 4.6 mph - N/A   Clear
9:57 AM 68.0 °F - 53.6 °F 60% 30.01 in 10.0 mi NNE 3.5 mph - N/A   Clear
10:59 AM 71.6 °F - 51.8 °F 50% 30.00 in 10.0 mi ESE 1.2 mph - N/A   Clear
12:02 PM 75.2 °F - 53.6 °F 47% 30.00 in 10.0 mi NNE 3.5 mph - N/A   Clear
1:03 PM 77.0 °F - 53.6 °F 44% 29.97 in 10.0 mi NE 1.2 mph - N/A   Clear
1:42 PM 80.6 °F 80.3 °F 53.6 °F 39% 29.96 in 2.5 mi Variable 4.6 mph - N/A   Haze
1:52 PM 80.6 °F 80.3 °F 53.6 °F 39% 29.96 in 5.0 mi South 5.8 mph - N/A   Haze
1:58 PM 80.6 °F 80.3 °F 53.6 °F 39% 29.97 in 10.0 mi South 5.8 mph - N/A   Clear
2:58 PM 82.4 °F 81.4 °F 53.6 °F 37% 29.95 in 10.0 mi SSW 8.1 mph - N/A   Clear
3:58 PM 84.2 °F 82.8 °F 53.6 °F 35% 29.94 in 10.0 mi South 3.5 mph - N/A   Clear
4:58 PM 82.4 °F - 51.8 °F 35% 29.92 in 10.0 mi South 4.6 mph - N/A   Clear
5:58 PM 82.4 °F 81.7 °F 55.4 °F 39% 29.91 in 10.0 mi SW 12.7 mph - N/A   Clear
6:58 PM 77.0 °F - 57.2 °F 50% 29.91 in 10.0 mi WSW 15.0 mph - N/A   Clear
7:58 PM 71.6 °F - 59.0 °F 64% 29.91 in 10.0 mi SW 12.7 mph - N/A   Clear
8:58 PM 68.0 °F - 59.0 °F 73% 29.92 in 10.0 mi SW 12.7 mph - N/A   Clear
9:58 PM 66.2 °F - 57.2 °F 73% 29.91 in 10.0 mi SW 16.1 mph - N/A   Clear
10:58 PM 66.2 °F - 57.2 °F 73% 29.91 in 10.0 mi SW 16.1 mph - N/A   Clear
11:58 PM 64.4 °F - 57.2 °F 77% 29.90 in 10.0 mi SW 13.8 mph - N/A   Clear